PROFILE

 METAR AND TAF INFORMATION
ADDS - METARS form results

(0200 UTC 20 February 2020)
http://aviationweather.gov/metar/data/
 
GMMN 200156Z 23005KT 0800 FG SCT002 10/10 Q1019 NOSIG
GMMN 200150Z 22005KT 4000 BR SCT004 10/10 Q1019 NOSIG
GMMN 200130Z 21005KT 5000 SCT016 10/10 Q1019 NOSIG
TAF GMMN 192300Z 2000/2106 20003KT 8000 SCT016 PROB30 TEMPO 3000 BR SCT006 TEMPO 2014/2024 04015KT 

 AIRPORT MAP

 RUNWAY INFORMATION
Runway 17L Runway length 12205 ft Runway width 148 ft
Runway elevation 633 ft Runway displaced threshold 0 ft Runway heading 164
Runway 35R Runway length 12205 ft Runway width 148 ft
Runway elevation 656 ft Runway displaced threshold 0 ft Runway heading 344
Runway 17R Runway length 12205 ft Runway width 148 ft
Runway elevation 636 ft Runway displaced threshold 0 ft Runway heading 164
Runway 35L Runway length 12205 ft Runway width 148 ft
Runway elevation 656 ft Runway displaced threshold 0 ft Runway heading 344

 AIRPORT FREQUENCIES
Type APP Name APP Frequency 121.3 MHZ
Type ATIS Name ATIS Frequency 126.4 MHZ
Type TWR Name TWR Frequency 118.5 MHZ

 AIRPORT NEAR NAVIGATION AIDS
Type VOR-DME Name Casablanca Frequency 114000 KHZ